CORVUS BC2 (42846 NORAD) Tracking and Keplerian Element Data

This shows tracking and keplerian element data for the satellite.

Feedback or suggestion? Click here.




ElementValue
Catalog42846
NameCORVUS BC2
Epoch Orbit41211
Epoch Day34.55139219
Epoch Year2025
RAAN213.3679
Inclination97.3692
Eccentricity0.001383
Argument of Perigee9.325
Mean Anonmoly350.8229
Mean Motion15.01336866
Decay Rate6.299E-05
L11 42846U 17042X 25034.55139219 .00006299 00000+0 49237-3 0 9990
L22 42846 97.3692 213.3679 0013830 9.3250 350.8229 15.01336866412114



Live tracking and technical data element details for CORVUS BC2 (NORAD 42846). CORVUS BC2 can be tracked NOW for your location showing map with azimuth and elevation plus other details from your city location.







IsCatalogInMostPopularTable: catalog: 42846, numindb: 289
Update: records affected: 1



GetName: 42846 CORVUS BC2

Hit Count: updated at: Thu, 22 May 2025 04:16:36 GMT